CW4517 Weather Reports


time (UTC)temp
C
wind
direction
speed
KPH
gust
KPH
rain 1hr
cm
rain 24hr
cm
rain mn
cm
humidity
%
barometer
mb
20260509150329 15 215 9.7 19.3 0.00 0.00 0.00 77 1001.3
20260509150041 15 192 8.0 17.7 0.00 0.00 0.00 78 1001.3
20260509145319 15 218 9.7 22.5 0.00 0.00 0.00 79 1001.3
20260509144819 14 229 11.3 22.5 0.00 0.00 0.00 79 1001.3
20260509144538 14 243 11.3 22.5 0.00 0.00 0.00 78 1001.3
20260509143819 14 227 11.3 24.1 0.00 0.00 0.00 79 1001.3
20260509143536 14 241 11.3 24.1 0.00 0.00 0.00 79 1001.4
20260509142818 14 263 11.3 29.0 0.00 0.00 0.00 78 1001.4
20260509142539 14 229 9.7 29.0 0.00 0.00 0.00 79 1001.4
20260509141818 14 241 9.7 20.9 0.00 0.00 0.00 79 1001.2
20260509141313 14 245 11.3 22.5 0.00 0.00 0.00 80 1001.2
20260509140804 13 221 11.3 22.5 0.00 0.00 0.00 82 1001.2
20260509140253 13 232 11.3 22.5 0.00 0.00 0.00 82 1001.2
20260509135752 13 252 11.3 24.1 0.00 0.00 0.00 84 1001.2
20260509135246 13 241 11.3 24.1 0.00 0.00 0.00 85 1001.2
20260509134741 12 223 11.3 22.5 0.00 0.00 0.00 86 1001.3
20260509134234 12 206 11.3 22.5 0.00 0.00 0.00 87 1001.3
20260509133724 12 221 11.3 20.9 0.00 0.00 0.00 89 1001.3
20260509133224 12 224 11.3 20.9 0.00 0.00 0.00 90 1001.4
20260509132716 11 231 11.3 22.5 0.00 0.00 0.00 91 1001.4
20260509132210 11 218 9.7 22.5 0.00 0.00 0.00 91 1001.4
20260509131704 11 225 9.7 22.5 0.00 0.00 0.00 92 1001.3
20260509131158 11 240 9.7 24.1 0.00 0.00 0.00 92 1001.3
20260509130652 11 231 8.0 24.1 0.00 0.00 0.00 93 1001.3
20260509130147 10 233 9.7 22.5 0.00 0.00 0.00 93 1001.3
20260509125641 10 252 11.3 22.5 0.00 0.00 0.00 92 1001.3
20260509125134 10 217 11.3 19.3 0.00 0.00 0.00 92 1001.3
20260509124629 10 246 12.9 20.9 0.00 0.00 0.00 93 1001.5
20260509124342 10 223 11.3 20.9 0.00 0.00 0.00 92 1001.5
20260509123611 10 242 9.7 19.3 0.00 0.00 0.00 92 1001.5
20260509123110 10 225 9.7 17.7 0.00 0.00 0.00 92 1001.6
20260509122605 10 215 9.7 19.3 0.00 0.00 0.00 92 1001.6
20260509122057 10 242 9.7 19.3 0.00 0.00 0.00 92 1001.6
20260509121817 10 225 8.0 17.7 0.00 0.00 0.00 92 1001.3
20260509121532 10 215 6.4 17.7 0.00 0.00 0.00 92 1001.3
20260509120540 10 231 8.0 17.7 0.00 0.00 0.00 92 1001.3
20260509120030 10 257 9.7 17.7 0.00 0.00 0.00 92 1000.7
20260509115748 10 249 8.0 19.3 0.00 0.00 0.00 92 1000.7
20260509115244 10 199 8.0 19.3 0.00 0.00 0.00 92 1000.7
20260509114745 10 236 8.0 16.1 0.00 0.00 0.00 92 1000.6
20260509114504 10 221 6.4 14.5 0.00 0.00 0.00 92 1000.6
20260509113501 10 186 6.4 14.5 0.00 0.00 0.00 92 1000.6
20260509113224 10 211 8.0 17.7 0.00 0.00 0.00 92 1000.6
20260509112453 10 209 8.0 17.7 0.00 0.00 0.00 92 1000.6
20260509112205 10 210 8.0 17.7 0.00 0.00 0.00 92 1000.7
20260509111442 10 164 8.0 17.7 0.00 0.00 0.00 92 1000.7
20260509110942 10 248 8.0 20.9 0.00 0.00 0.00 92 1000.7
20260509110442 10 190 6.4 20.9 0.00 0.00 0.00 92 1000.8
20260509110435 10 202 6.4 14.5 0.00 0.00 0.00 92 1000.8
20260509105442 10 207 8.0 16.1 0.00 0.00 0.00 92 1000.8
20260509104943 10 228 8.0 16.1 0.00 0.00 0.00 92 1000.7
20260509104442 10 213 6.4 16.1 0.00 0.00 0.00 92 1000.7
20260509103942 10 211 6.4 16.1 0.00 0.00 0.00 92 1000.7
20260509103442 9 190 6.4 12.9 0.00 0.00 0.00 92 1000.9
20260509102942 9 221 6.4 12.9 0.00 0.00 0.00 92 1000.9
20260509102444 9 221 6.4 12.9 0.00 0.00 0.00 91 1000.9
20260509101946 9 203 6.4 11.3 0.00 0.00 0.00 91 1001.1
20260509101924 9 201 6.4 12.9 0.00 0.00 0.00 91 1001.1
20260509100927 9 217 6.4 12.9 0.00 0.00 0.00 91 1001.1
20260509100416 9 207 6.4 14.5 0.00 0.00 0.00 91 1001.2
20260509095904 9 192 6.4 14.5 0.00 0.00 0.00 91 1001.2
20260509095351 9 167 6.4 12.9 0.00 0.00 0.00 91 1001.2
20260509094838 9 192 6.4 17.7 0.00 0.00 0.00 91 1001.2
20260509094331 9 191 6.4 17.7 0.00 0.00 0.00 91 1001.2
20260509093825 9 209 4.8 11.3 0.00 0.00 0.00 91 1001.2
20260509093318 9 219 4.8 12.9 0.00 0.00 0.00 91 1001.5
20260509092812 9 219 4.8 12.9 0.00 0.00 0.00 91 1001.5
20260509092305 9 190 6.4 12.9 0.00 0.00 0.00 91 1001.5
20260509091800 9 210 4.8 11.3 0.00 0.00 0.00 91 1001.3
20260509091254 9 175 3.2 9.7 0.00 0.00 0.00 91 1001.3
20260509090749 9 215 4.8 8.0 0.00 0.00 0.00 90 1001.3
20260509090242 9 204 3.2 8.0 0.00 0.00 0.00 90 1001.3
20260509085737 9 209 3.2 9.7 0.00 0.00 0.00 90 1001.3
20260509085231 9 203 3.2 9.7 0.00 0.00 0.00 90 1001.3
20260509084719 9 225 4.8 9.7 0.00 0.00 0.00 90 1001.3
20260509084218 9 211 4.8 11.3 0.00 0.00 0.00 90 1001.3
20260509084203 10 210 4.8 11.3 0.00 0.00 0.00 90 1001.3
20260509083206 10 221 4.8 9.7 0.00 0.00 0.00 90 1001.2
20260509082919 10 200 3.2 9.7 0.00 0.00 0.00 90 1001.2
20260509082413 10 211 3.2 8.0 0.00 0.00 0.00 90 1001.2
20260509081648 10 209 4.8 8.0 0.00 0.00 0.00 90 1001.3
20260509081144 9 222 4.8 11.3 0.00 0.00 0.00 90 1001.3
20260509080637 9 233 4.8 11.3 0.00 0.00 0.00 90 1001.3
20260509080132 9 215 3.2 8.0 0.00 0.00 0.00 90 1001.4
20260509075624 9 225 3.2 8.0 0.00 0.00 0.00 90 1001.4
20260509075119 9 207 3.2 8.0 0.00 0.00 0.00 90 1001.4
20260509074829 9 202 4.8 9.7 0.00 0.00 0.00 90 1001.8
20260509074107 9 216 4.8 9.7 0.00 0.00 0.00 89 1001.8
20260509073600 9 231 4.8 9.7 0.00 0.00 0.00 89 1001.8
20260509073053 9 221 4.8 11.3 0.00 0.00 0.00 89 1001.8
20260509072548 10 209 4.8 11.3 0.00 0.00 0.00 89 1001.8
20260509072038 10 225 4.8 9.7 0.00 0.00 0.00 89 1001.8
20260509071535 10 209 4.8 9.7 0.00 0.00 0.00 89 1001.8
20260509071029 10 223 4.8 9.7 0.00 0.00 0.00 89 1001.8
20260509070526 10 219 4.8 8.0 0.00 0.00 0.00 88 1001.8
20260509070026 10 223 4.8 9.7 0.00 0.00 0.00 88 1001.9
20260509065528 10 194 6.4 12.9 0.00 0.00 0.00 88 1001.9
20260509065027 10 225 6.4 12.9 0.00 0.00 0.00 88 1001.9
20260509064527 10 225 4.8 9.7 0.00 0.00 0.00 88 1002.1
20260509064028 10 220 4.8 8.0 0.00 0.00 0.00 88 1002.1
20260509063527 10 215 4.8 9.7 0.00 0.00 0.00 88 1002.1
20260509063251 10 225 4.8 9.7 0.00 0.00 0.00 87 1002.3
20260509062527 10 238 3.2 9.7 0.00 0.00 0.00 87 1002.3
20260509062027 10 226 3.2 8.0 0.00 0.00 0.00 87 1002.3
20260509061529 10 221 4.8 8.0 0.00 0.00 0.00 87 1002.4
20260509061031 10 221 4.8 12.9 0.00 0.00 0.00 87 1002.4
20260509060524 10 205 4.8 12.9 0.00 0.00 0.00 87 1002.4
20260509060012 10 224 6.4 11.3 0.00 0.00 0.00 87 1002.5
20260509055458 10 228 6.4 11.3 0.00 0.00 0.00 86 1002.5
20260509055217 11 217 4.8 11.3 0.00 0.00 0.00 86 1002.5
20260509054443 11 225 6.4 11.3 0.00 0.00 0.00 86 1002.5
20260509053943 11 232 4.8 9.7 0.00 0.00 0.00 86 1002.5
20260509053440 11 220 6.4 11.3 0.00 0.00 0.00 86 1002.6
20260509052940 11 223 6.4 12.9 0.00 0.00 0.00 86 1002.6
20260509052441 11 230 6.4 12.9 0.00 0.00 0.00 85 1002.6
20260509051940 11 229 6.4 11.3 0.00 0.00 0.00 85 1002.4
20260509051442 11 219 6.4 12.9 0.00 0.00 0.00 86 1002.4
20260509051438 11 227 6.4 14.5 0.00 0.00 0.00 86 1002.4
20260509050439 11 192 6.4 14.5 0.00 0.00 0.00 86 1002.8
20260509045939 11 211 8.0 14.5 0.00 0.00 0.00 85 1002.8
20260509045438 11 221 8.0 14.5 0.00 0.00 0.00 85 1002.8
20260509044938 11 215 8.0 12.9 0.00 0.00 0.00 85 1002.9
20260509044433 12 223 6.4 12.9 0.00 0.00 0.00 85 1002.9
20260509043920 12 231 4.8 11.3 0.00 0.00 0.00 85 1002.9
20260509043408 12 220 6.4 11.3 0.00 0.00 0.00 84 1002.9
20260509042856 12 206 6.4 12.9 0.00 0.00 0.00 84 1002.9
20260509042354 12 192 6.4 12.9 0.00 0.00 0.00 84 1002.9
20260509041849 12 220 6.4 12.9 0.00 0.00 0.00 84 1002.9
20260509041602 12 214 6.4 12.9 0.00 0.00 0.00 84 1002.9
20260509040837 12 215 6.4 14.5 0.00 0.00 0.00 84 1002.9
20260509040328 12 227 8.0 16.1 0.00 0.00 0.00 83 1003.1
20260509035824 12 189 8.0 14.5 0.00 0.00 0.00 83 1003.1
20260509035319 12 223 6.4 14.5 0.00 0.00 0.00 83 1003.1
20260509034813 12 236 6.4 14.5 0.00 0.00 0.00 82 1003.3
20260509034534 12 220 6.4 12.9 0.00 0.00 0.00 82 1003.3
20260509033800 12 224 4.8 11.3 0.00 0.00 0.00 82 1003.3
20260509033254 13 221 6.4 11.3 0.00 0.00 0.00 81 1003.1
20260509032744 13 215 6.4 11.3 0.00 0.00 0.00 81 1003.1
20260509032242 13 207 6.4 11.3 0.00 0.00 0.00 80 1003.1
20260509032004 13 218 4.8 11.3 0.00 0.00 0.00 80 1003.1
20260509031450 13 201 6.4 12.9 0.00 0.00 0.00 79 1003.1
20260509030724 13 151 6.4 12.9 0.00 0.00 0.00 78 1003.1
20260509030214 13 217 6.4 12.9 0.00 0.00 0.00 77 1003.3
20260509025712 13 205 4.8 11.3 0.00 0.00 0.00 76 1003.3
20260509025206 13 172 6.4 11.3 0.00 0.00 0.00 76 1003.3
20260509024700 13 181 6.4 11.3 0.00 0.00 0.00 76 1003.3
20260509024154 13 196 4.8 11.3 0.00 0.00 0.00 76 1003.3
20260509023648 13 219 4.8 9.7 0.00 0.00 0.00 76 1003.3
20260509023403 13 203 4.8 9.7 0.00 0.00 0.00 76 1003.3
20260509022632 13 199 4.8 9.7 0.00 0.00 0.00 75 1003.3
20260509022131 13 180 4.8 9.7 0.00 0.00 0.00 75 1003.3
20260509021844 14 254 4.8 9.7 0.00 0.00 0.00 75 1003.1
20260509021122 14 208 4.8 6.4 0.00 0.00 0.00 75 1003.1
20260509020622 14 188 4.8 9.7 0.00 0.00 0.00 75 1003.1
20260509020122 14 227 4.8 9.7 0.00 0.00 0.00 75 1002.9
20260509015622 14 232 4.8 14.5 0.00 0.00 0.00 74 1002.9
20260509015355 14 226 6.4 14.5 0.00 0.00 0.00 74 1002.9
20260509014621 15 180 6.4 12.9 0.00 0.00 0.00 74 1002.8
20260509014122 15 205 6.4 14.5 0.00 0.00 0.00 74 1002.8
20260509013851 15 236 8.0 14.5 0.00 0.00 0.00 74 1002.8
20260509013345 15 212 8.0 14.5 0.00 0.00 0.00 73 1002.7
20260509012849 15 184 6.4 17.7 0.00 0.00 0.00 73 1002.7
20260509012122 15 240 6.4 17.7 0.00 0.00 0.00 73 1002.7
20260509011622 15 209 6.4 12.9 0.00 0.00 0.00 72 1002.9
20260509011122 15 212 6.4 12.9 0.00 0.00 0.00 72 1002.9
20260509010621 15 225 6.4 11.3 0.00 0.00 0.00 71 1002.9
20260509010122 16 210 6.4 12.9 0.00 0.00 0.00 70 1002.8
20260509005615 16 190 4.8 12.9 0.00 0.00 0.00 69 1002.8
20260509005104 16 169 4.8 8.0 0.00 0.00 0.00 68 1002.8
20260509004552 16 170 3.2 8.0 0.00 0.00 0.00 67 1002.7
20260509004041 16 207 3.2 6.4 0.00 0.00 0.00 66 1002.7
20260509003529 16 199 3.2 6.4 0.00 0.00 0.00 65 1002.7
20260509003015 16 179 4.8 11.3 0.00 0.00 0.00 63 1002.7
20260509002725 17 239 4.8 11.3 0.00 0.00 0.00 63 1002.7
20260509002214 17 234 4.8 11.3 0.00 0.00 0.00 63 1002.8
20260509001441 17 224 6.4 11.3 0.00 0.00 0.00 63 1002.8
20260509000940 17 225 6.4 14.5 0.00 0.00 0.00 63 1002.8
20260509000435 17 232 6.4 16.1 0.00 0.00 0.00 63 1002.8
20260508235927 17 220 6.4 16.1 0.00 0.00 0.00 63 1002.8
20260508235421 17 244 8.0 16.1 0.00 0.00 0.00 63 1002.8
20260508234915 17 238 6.4 16.1 0.00 0.00 0.00 64 1002.8
20260508234410 17 250 6.4 12.9 0.00 0.00 0.00 65 1002.8
20260508233859 17 245 8.0 14.5 0.00 0.00 0.00 65 1002.8
20260508233357 17 219 8.0 14.5 0.00 0.00 0.00 65 1002.9
20260508232852 17 241 6.4 12.9 0.00 0.00 0.00 64 1002.9
20260508232346 17 230 6.4 14.5 0.00 0.00 0.00 65 1002.9
20260508231840 17 248 8.0 14.5 0.00 0.00 0.00 65 1002.9
20260508231334 17 225 8.0 16.1 0.00 0.00 0.00 65 1002.9
20260508230829 17 223 9.7 20.9 0.00 0.00 0.00 63 1002.9
20260508230323 18 0 11.3 20.9 0.00 0.00 0.00 63 1002.9
20260508225816 18 219 9.7 22.5 0.00 0.00 0.00 64 1002.9
20260508225309 18 216 8.0 20.9 0.00 0.00 0.00 63 1002.9
20260508224803 18 217 9.7 17.7 0.00 0.00 0.00 62 1002.9
20260508224258 18 227 8.0 17.7 0.00 0.00 0.00 63 1002.9
20260508224012 18 242 8.0 16.1 0.00 0.00 0.00 64 1002.9
20260508223245 18 209 8.0 16.1 0.00 0.00 0.00 63 1002.9
20260508223005 18 257 8.0 16.1 0.00 0.00 0.00 63 1002.9
20260508222233 18 244 6.4 12.9 0.00 0.00 0.00 62 1002.9
20260508221729 18 221 8.0 20.9 0.00 0.00 0.00 61 1003.0
20260508221225 18 209 8.0 20.9 0.00 0.00 0.00 61 1003.0
20260508220725 18 234 8.0 16.1 0.00 0.00 0.00 61 1003.0
20260508220223 18 252 8.0 16.1 0.00 0.00 0.00 60 1002.9
20260508215723 18 231 6.4 16.1 0.00 0.00 0.00 61 1002.9
20260508215222 18 232 8.0 14.5 0.00 0.00 0.00 60 1002.9
20260508214940 18 173 8.0 14.5 0.00 0.00 0.00 60 1003.0
20260508214225 18 245 8.0 14.5 0.00 0.00 0.00 61 1003.0
20260508213720 18 164 8.0 19.3 0.00 0.00 0.00 61 1003.0
20260508213218 18 226 6.4 19.3 0.00 0.00 0.00 60 1003.2
20260508212719 18 261 6.4 14.5 0.00 0.00 0.00 61 1003.2
20260508212219 18 197 8.0 17.7 0.00 0.00 0.00 59 1003.2
20260508211936 18 238 6.4 17.7 0.00 0.00 0.00 58 1003.3
20260508211215 18 240 6.4 12.9 0.00 0.00 0.00 61 1003.3
20260508210714 18 258 6.4 12.9 0.00 0.00 0.00 59 1003.3
20260508210215 18 200 6.4 14.5 0.00 0.00 0.00 58 1003.4
20260508205715 18 229 4.8 16.1 0.00 0.00 0.00 59 1003.4
20260508205214 18 271 4.8 16.1 0.00 0.00 0.00 61 1003.4
20260508205159 18 186 6.4 11.3 0.00 0.00 0.00 61 1003.4
20260508204213 18 190 4.8 11.3 0.00 0.00 0.00 62 1003.4
20260508203700 18 196 3.2 8.0 0.00 0.00 0.00 63 1003.4
20260508203158 18 162 3.2 9.7 0.00 0.00 0.00 62 1003.8
20260508202659 17 149 4.8 14.5 0.00 0.00 0.00 63 1003.8
20260508202424 17 232 4.8 14.5 0.00 0.00 0.00 63 1003.8
20260508201658 18 223 4.8 14.5 0.00 0.00 0.00 62 1003.9
20260508201202 18 219 4.8 14.5 0.00 0.00 0.00 62 1003.9
20260508201141 18 192 4.8 11.3 0.00 0.00 0.00 63 1003.9
20260508200158 18 170 4.8 14.5 0.00 0.00 0.00 61 1004.2
20260508195700 18 223 3.2 12.9 0.00 0.00 0.00 60 1004.2
20260508195155 18 199 3.2 9.7 0.00 0.00 0.00 61 1004.2
20260508194646 18 150 4.8 12.9 0.00 0.00 0.00 59 1004.4
20260508194411 18 225 4.8 12.9 0.00 0.00 0.00 60 1004.4
20260508193637 18 253 3.2 11.3 0.00 0.00 0.00 61 1004.4
20260508193130 18 122 3.2 8.0 0.00 0.00 0.00 62 1004.4
20260508192627 18 272 3.2 8.0 0.00 0.00 0.00 59 1004.4
20260508192120 18 194 4.8 8.0 0.00 0.00 0.00 61 1004.4
20260508191613 18 184 4.8 9.7 0.00 0.00 0.00 62 1004.5
20260508191103 18 135 4.8 9.7 0.00 0.00 0.00 63 1004.5
20260508190826 18 233 3.2 8.0 0.00 0.00 0.00 64 1004.5
20260508190320 17 146 4.8 9.7 0.00 0.00 0.00 63 1004.7
20260508185814 17 107 4.8 11.3 0.00 0.00 0.00 63 1004.7
20260508185044 17 200 6.4 11.3 0.00 0.00 0.00 64 1004.7
20260508184533 18 257 4.8 12.9 0.00 0.00 0.00 61 1005.0
20260508184030 18 167 4.8 12.9 0.00 0.00 0.00 61 1005.0
20260508183524 18 96 4.8 8.0 0.00 0.00 0.00 61 1005.0
20260508183018 17 194 4.8 14.5 0.00 0.00 0.00 62 1005.0
20260508182737 17 161 4.8 14.5 0.00 0.00 0.00 62 1005.0
20260508182001 17 198 4.8 11.3 0.00 0.00 0.00 61 1005.0
20260508181500 17 117 3.2 6.4 0.00 0.00 0.00 61 1005.2
20260508180955 17 117 3.2 9.7 0.00 0.00 0.00 63 1005.2
20260508180444 17 152 6.4 9.7 0.00 0.00 0.00 60 1005.4
20260508175943 17 203 4.8 9.7 0.00 0.00 0.00 61 1005.4
20260508175659 17 227 3.2 8.0 0.00 0.00 0.00 62 1005.4
20260508174931 17 249 3.2 9.7 0.00 0.00 0.00 62 1005.5
20260508174420 17 150 4.8 9.7 0.00 0.00 0.00 60 1005.5
20260508173919 17 69 4.8 9.7 0.00 0.00 0.00 59 1005.5
20260508173413 17 130 4.8 12.9 0.00 0.00 0.00 62 1005.9
20260508173127 17 164 3.2 12.9 0.00 0.00 0.00 63 1005.9
20260508172400 17 121 3.2 6.4 0.00 0.00 0.00 63 1005.9
20260508171849 17 223 3.2 9.7 0.00 0.00 0.00 65 1006.1
20260508171347 17 250 3.2 9.7 0.00 0.00 0.00 64 1006.1
20260508170843 17 217 3.2 9.7 0.00 0.00 0.00 66 1006.1
20260508170336 16 189 4.8 9.7 0.00 0.00 0.00 66 1006.5
20260508170053 16 138 4.8 9.7 0.00 0.00 0.00 68 1006.5
20260508165324 16 109 4.8 9.7 0.00 0.00 0.00 69 1006.5
20260508165040 16 238 3.2 9.7 0.00 0.00 0.00 68 1006.6
20260508164313 16 170 3.2 9.7 0.00 0.00 0.00 70 1006.6
20260508163802 15 207 4.8 11.3 0.00 0.00 0.00 70 1006.6
20260508163513 15 217 4.8 11.3 0.00 0.00 0.00 70 1006.9
20260508162737 15 202 3.2 9.7 0.00 0.00 0.00 71 1006.9
20260508162232 15 206 3.2 9.7 0.00 0.00 0.00 70 1006.9
20260508161731 15 171 3.2 8.0 0.00 0.00 0.00 71 1007.0
20260508161232 15 138 3.2 8.0 0.00 0.00 0.00 71 1007.0
20260508160735 15 201 3.2 8.0 0.00 0.00 0.00 71 1007.0
20260508160234 15 157 3.2 8.0 0.00 0.00 0.00 70 1007.0
20260508155731 15 207 3.2 6.4 0.00 0.00 0.00 72 1007.0
20260508155457 15 139 3.2 8.0 0.00 0.00 0.00 72 1007.0
20260508154731 15 221 3.2 11.3 0.00 0.00 0.00 71 1007.1
20260508154230 15 178 3.2 11.3 0.00 0.00 0.00 71 1007.1
20260508153728 15 231 3.2 9.7 0.00 0.00 0.00 70 1007.1
20260508153224 15 209 3.2 6.4 0.00 0.00 0.00 72 1007.2
20260508152717 15 209 3.2 11.3 0.00 0.00 0.00 73 1007.2
20260508152211 15 190 3.2 11.3 0.00 0.00 0.00 72 1007.2
20260508151659 15 140 3.2 9.7 0.00 0.00 0.00 72 1007.2
20260508151159 15 211 4.8 11.3 0.00 0.00 0.00 72 1007.2